Weather History for Hot Springs, AR

Change the Weather History Date:

Sunday, May 10, 2009

  Actual Average Record
Temperature  
Mean Temperature 60 °F -  
Max Temperature 63 °F 79 °F 90 °F (1987)
Min Temperature 57 °F 53 °F 41 °F (1990)
Degree Days  
Heating Degree Days 6    
Growing Degree Days 10 (Base 50)    
Moisture  
Dew Point 57 °F    
Average Humidity 91    
Maximum Humidity 96    
Minimum Humidity 78    
Precipitation  
Precipitation 0.90 in - - ()
Sea Level Pressure  
Sea Level Pressure 30.09 in    
Wind  
Wind Speed 6 mph (East)    
Max Wind Speed 13 mph    
Max Gust Speed 25 mph    
Visibility 7 miles    
Events Rain , Thunderstorm    
Averages and records for this station are not official NWS values.
T = Trace of Precipitation, MM = Missing Value Source: NWS Daily Summary

Daily Weather History Graph

Daily Weather History Graph

Search for Another Location

Airport:

Trip Planner

Search our weather history database for the weather conditions in past years. The results will help you decide how hot, cold, wet, or windy it might be!

Date:

Astronomy

May. 10, 2009 Rise Set
Actual Time 6:13 AM CDT 8:04 PM CDT
Civil Twilight 5:46 AM CDT 8:31 PM CDT
Nautical Twilight 5:12 AM CDT 9:05 PM CDT
Astronomical Twilight 4:37 AM CDT 9:40 PM CDT
Moon 9:59 PM CDT (5/10) 6:51 AM CDT (5/10)
Length of Visible Light 14h 45m
Length of Day
13h 50m
Full, 98% of the Moon is Illuminated
May 10
Full
May 17
Last Quarter
May 24
New
May 30
First Quarter
Jun 7
Full

Hourly Weather History & Observations

Time (CDT) Temp. Dew Point Humidity Pressure Visibility Wind Dir Wind Speed Gust Speed Precip Events Conditions
12:53 AM 60.8 °F 57.2 °F 88% 30.08 in 10.0 mi Calm Calm - N/A   Scattered Clouds
1:53 AM 62.1 °F 55.9 °F 80% 30.06 in 10.0 mi East 3.5 mph - N/A   Overcast
2:53 AM 62.1 °F 55.0 °F 78% 30.05 in 5.0 mi East 8.1 mph - 0.04 in Rain Rain
3:35 AM 60.8 °F 57.2 °F 88% 30.07 in 10.0 mi Calm Calm - 0.01 in Rain , Thunderstorm Light Rain
3:53 AM 60.1 °F 55.9 °F 86% 30.09 in 4.0 mi North 8.1 mph - 0.08 in Rain , Thunderstorm Heavy Thunderstorms and Rain
3:57 AM 60.8 °F 55.4 °F 82% 30.09 in 1.8 mi Variable 6.9 mph - 0.14 in Rain , Thunderstorm Heavy Thunderstorms and Rain
4:07 AM 59.0 °F 57.2 °F 94% 30.10 in 2.0 mi Variable 5.8 mph - 0.28 in Rain , Thunderstorm Heavy Thunderstorms and Rain
4:18 AM 60.8 °F 55.4 °F 82% 30.09 in 5.0 mi NE 8.1 mph 16.1 mph 0.32 in Rain , Thunderstorm Rain
4:53 AM 59.0 °F 57.0 °F 93% 30.12 in 7.0 mi West 12.7 mph - 0.35 in Rain , Thunderstorm Thunderstorms and Rain
5:02 AM 59.0 °F 57.2 °F 94% 30.10 in 2.5 mi ENE 4.6 mph - N/A Rain , Thunderstorm Heavy Thunderstorms and Rain
5:07 AM 59.0 °F 57.2 °F 94% 30.10 in 1.8 mi ESE 5.8 mph - 0.20 in Rain , Thunderstorm Heavy Thunderstorms and Rain
5:10 AM 59.0 °F 57.2 °F 94% 30.10 in 2.5 mi ENE 6.9 mph - 0.21 in Rain , Thunderstorm Heavy Thunderstorms and Rain
5:17 AM 59.0 °F 57.2 °F 94% 30.11 in 6.0 mi NE 5.8 mph - 0.21 in Rain Light Rain
9:53 AM 57.9 °F 55.9 °F 93% 30.13 in 8.0 mi East 10.4 mph - N/A Rain Light Rain
10:10 AM 59.0 °F 57.2 °F 94% 30.14 in 9.0 mi ESE 6.9 mph - 0.01 in Rain Light Rain
10:53 AM 59.0 °F 57.0 °F 93% 30.13 in 10.0 mi East 9.2 mph 17.3 mph 0.01 in   Overcast
11:05 AM 59.0 °F 57.2 °F 94% 30.13 in 10.0 mi East 11.5 mph - N/A   Overcast
11:53 AM 60.1 °F - N/A% 30.10 in 10.0 mi East 9.2 mph - N/A   Overcast
12:53 PM 61.0 °F 59.0 °F 93% 30.09 in 10.0 mi ENE 11.5 mph - 0.00 in   Overcast
1:53 PM 61.0 °F 59.0 °F 93% 30.13 in 10.0 mi NE 6.9 mph - 0.01 in Rain Light Rain
2:45 PM 60.8 °F 59.0 °F 94% 30.19 in 5.0 mi Variable 4.6 mph - 0.09 in Rain , Thunderstorm Rain
2:53 PM 60.1 °F 57.9 °F 93% 30.19 in 3.0 mi NW 3.5 mph - 0.12 in Rain , Thunderstorm Heavy Rain
2:57 PM 60.8 °F 57.2 °F 88% 30.19 in 2.0 mi Variable 3.5 mph - 0.02 in Rain , Thunderstorm Heavy Rain
3:05 PM 60.8 °F 57.2 °F 88% 30.17 in 1.8 mi SE 4.6 mph - 0.06 in Rain , Thunderstorm Heavy Rain
3:08 PM 60.8 °F 57.2 °F 88% 30.17 in 2.0 mi SE 4.6 mph - 0.07 in Rain , Thunderstorm Heavy Rain
3:18 PM 59.0 °F 57.2 °F 94% 30.14 in 3.0 mi SE 6.9 mph - 0.09 in Rain Rain
3:29 PM 59.0 °F 57.2 °F 94% 30.11 in 3.0 mi ESE 9.2 mph - 0.13 in Rain , Thunderstorm Rain
3:37 PM 59.0 °F 57.2 °F 94% 30.08 in 4.0 mi ESE 6.9 mph - 0.15 in Rain , Thunderstorm Rain
3:43 PM 59.0 °F 57.2 °F 94% 30.08 in 5.0 mi ESE 5.8 mph - 0.16 in Rain Rain
3:53 PM 59.0 °F 57.9 °F 96% 30.06 in 5.0 mi East 6.9 mph - 0.19 in Rain Rain
4:43 PM 59.0 °F - N/A% 29.99 in 7.0 mi NNE 10.4 mph 25.3 mph 0.07 in Rain Light Rain
4:53 PM 60.1 °F - N/A% 29.99 in 10.0 mi Variable 5.8 mph - 0.07 in   Overcast
5:00 PM 60.8 °F 59.0 °F 94% 30.02 in 10.0 mi Variable 3.5 mph - N/A   Overcast
5:15 PM 60.8 °F 59.0 °F 94% 30.03 in 10.0 mi NNE 6.9 mph - N/A   Mostly Cloudy
5:53 PM 59.0 °F 57.0 °F 93% 30.04 in 10.0 mi NE 9.2 mph 18.4 mph N/A   Overcast
6:12 PM 59.0 °F 55.4 °F 88% 30.06 in 10.0 mi ENE 6.9 mph - N/A   Overcast
6:21 PM 59.0 °F 55.4 °F 88% 30.06 in 10.0 mi ENE 8.1 mph - N/A   Overcast
6:53 PM 59.0 °F 55.9 °F 90% 30.04 in 10.0 mi East 12.7 mph - N/A   Overcast
7:53 PM 59.0 °F 55.9 °F 90% 30.05 in 10.0 mi East 9.2 mph - N/A   Overcast
8:38 PM 59.0 °F 55.4 °F 88% 30.07 in 10.0 mi East 10.4 mph - 0.00 in   Overcast
8:53 PM 59.0 °F 55.9 °F 90% 30.07 in 10.0 mi East 6.9 mph - 0.00 in   Overcast
9:53 PM 59.0 °F 55.9 °F 90% 30.09 in 10.0 mi ENE 4.6 mph - N/A   Overcast
10:53 PM 59.0 °F 57.0 °F 93% 30.11 in 8.0 mi ENE 8.1 mph - 0.03 in Rain , Thunderstorm Light Thunderstorms and Rain
11:09 PM 59.0 °F 57.2 °F 94% 30.10 in 10.0 mi East 5.8 mph - 0.00 in   Overcast
11:41 PM 59.0 °F 57.2 °F 94% 30.11 in 10.0 mi ENE 4.6 mph - 0.00 in   Overcast
11:53 PM 59.0 °F 57.0 °F 93% 30.10 in 10.0 mi NE 6.9 mph - 0.00 in   Overcast